sat.trackr.live / text

‹ back to catalog

STARLINK-2615

NORAD 48678 · 2021-044AS

PAYLOAD ACTIVE UNKNOWN

§ Identity

Operator
Country
US
Launch date
2021-05-26
Launch site
AFETR
Launch vehicle
Mass (kg)
RCS (m²)

Purposes: comms

External: N2YO · Heavens-Above · Gunter

§ Orbital elements

Epoch: 2026-05-25T04:10:47.675424Z

Period
94.01 min
Inclination
53.1599°
Eccentricity
0.0001701
Mean motion
15.31718584 rev/d
Perigee alt
469.5 km
Apogee alt
471.8 km
Semi-major
6,848.8 km
B*
-9.3484e-5
RAAN
108.0633°
Arg perigee
103.6565°
Mean anomaly
256.4626°
Rev number
27,568

§ Raw data

STARLINK-26151 48678U 21044AS  26145.17416291 -.00003267  00000+0 -93484-4 0  99942 48678  53.1599 108.0633 0001701 103.6565 256.4626 15.31718584275685

JSON: /api/v1/satellites/48678 · /tle

For live sub-satellite position, see the globe view (requires WebGL).

§ Visibility from observer

Set your observer location to see the next 7 days of passes ≥ 10°. The values pass through the URL so the page stays shareable.

No JS? Fill the form by hand. The geolocation button needs JavaScript.